Regional Weather Roundup
Issued by NWS

Home | Current Version | Previous Version | Graphics & Text | Print | Product List | Glossary On
Versions: 1 2 3 4 5 6 7 8 9 10 11 12 13 14 15 16 17 18 19 20 21 22 23 24 25 26 27
000
ASUS45 KTFX 190110
RWRMT
MONTANA REGIONAL WEATHER ROUNDUP
NATIONAL WEATHER SERVICE GREAT FALLS MT
600 PM MST SAT FEB 18 2017

NOTE: "FAIR" INDICATES FEW OR NO CLOUDS BELOW 12000 FEET WITH NO
SIGNIFICANT WEATHER AND/OR OBSTRUCTIONS TO VISIBILITY.

MTZ001>007-043-190200-
WEST OF THE DIVIDE

CITY           SKY/WX    TMP DP  RH WIND       PRES   REMARKS
KALISPELL      CLOUDY    35  31  85 CALM      29.36F
MISSOULA       CLOUDY    38  31  76 N5        29.36S
BUTTE          CLOUDY    42  29  59 S22G30    29.45S
MULLAN PASS    SNOW      31  31 100 VRB5      29.32F VSB<1/4
ANACONDA         N/A     45  30  57 SE8G16    29.42F
DEER LODGE       N/A     46  32  57 S8        29.44S
EUREKA           N/A     30  28  93 CALM      29.41F
HAMILTON         N/A     52  30  43 S10G18    29.35F
LIBBY            N/A     34  32  93 CALM      29.38F
PLAINS           N/A     37  28  70 CALM      29.42
RONAN            N/A     34  28  79 CALM      29.46F
$$

MTZ008-052>055-190200-
SOUTHWEST MONTANA

CITY           SKY/WX    TMP DP  RH WIND       PRES   REMARKS
BOZEMAN        CLOUDY    40  31  70 S13       29.48S
DILLON         CLOUDY    45  28  51 S14G22    29.46F
W YELLOWSTONE  CLOUDY    34  32  93 S8        29.61F WCI  27
ENNIS          MOCLDY    41  32  70 S16       29.56F
$$

MTZ009-010-012-014-046-048-049-054-190200-
EAST SLOPES AND CENTRAL MONTANA

CITY           SKY/WX    TMP DP  RH WIND       PRES   REMARKS
CUT BANK       CLOUDY    36  29  75 NE3       29.40F
GREAT FALLS    CLOUDY    52  30  43 S12       29.39S
MALMSTROM AFB  CLOUDY    51  31  46 S7        29.39F
HELENA         CLOUDY    50  31  48 S6        29.40S
AUGUSTA          N/A     44  31  59 E3        29.38F
BOWMANS CRNR   MOCLDY    45  30  56 S6        29.37S
CHOTEAU          N/A     37  34  87 N8        29.41S WCI  31
CONRAD           N/A     38  36  92 CALM      29.48F
POWER          MOCLDY    43  31  63 E9        29.38F
RAYNESFORD     MOCLDY    48  29  48 SE14      29.42S
ULM            MOCLDY    52  32  46 MISG      29.38F
$$

MTZ011-013-016-021-045-047-050-051-190200-
NORTH CENTRAL MONTANA

CITY           SKY/WX    TMP DP  RH WIND       PRES   REMARKS
HAVRE          CLOUDY    42  34  73 E20       29.44F
LEWISTOWN      CLOUDY    46  29  51 SE10      29.46R
N BAR RANCH      N/A     43  28  56 SE3       29.53S
CHINOOK          N/A     41  34  75 E15G22    29.48S
DENTON         MOCLDY    46  31  56 NE8       29.41R
FORT BENTON      N/A     48  30  49 MISG      29.41F
GEYSER         MOCLDY    43  29  58 CALM      29.43S
GRASS RANGE      N/A     46  30  54 S6        29.46R
JUDITH GAP       N/A     44  32  64 SE17      29.48R
ROY              N/A     45  33  63 MISG      29.47R
STANFORD         N/A     46  30  52 S14       29.44S
WINIFRED         N/A     44  32  62 E12       29.44S
$$

MTZ017>020-022>027-061-062-190200-
NORTHEAST MONTANA

CITY           SKY/WX    TMP DP  RH WIND       PRES   REMARKS
GLASGOW        CLEAR     36  31  82 E16       29.58S WCI  26
JORDAN           N/A     42  33  70 E9        29.55S
SIDNEY         CLOUDY    38  32  79 NE10      29.64F WCI  31
WOLF POINT     CLOUDY    35  32  88 E12       29.64S WCI  27
PLENTYWOOD       N/A     34  32  93 E18       29.66F WCI  23
POPLAR           N/A     34  30  86 NE15      29.64F WCI  24
$$

MTZ028>42-056>058-190200-
SOUTHCENTRAL AND SOUTHEAST MONTANA

CITY           SKY/WX    TMP DP  RH WIND       PRES   REMARKS
BAKER          CLEAR     37  32  82 E3        29.59S
BILLINGS       CLOUDY    46  34  62 NW5       29.50F
LIVINGSTON     CLOUDY    48  29  47 SW8       29.50S
MILES CITY     CLEAR     47  31  53 NE7       29.56S
BIG TIMBER     MOCLDY    46  30  53 CALM      29.52S
FORSYTH          N/A     45  34  65 E7        29.54S
HARLOWTON      MOCLDY    46  30  52 E8        29.47F
LAUREL           N/A     46  28  49 W3        29.54F
$$

REGIONAL REPORTS...DAKOTAS

CITY           SKY/WX    TMP DP  RH WIND       PRES   REMARKS
WILLISTON      PTCLDY    37  32  82 E8        29.67F WCI  31
MINOT          CLOUDY    35  32  88 N7        29.73S WCI  29
DICKINSON      CLOUDY    34  30  85 NE9       29.61R WCI  27
BEACH            N/A    N/A N/A N/A MISG        N/A
CROSBY         MOCLDY    32  32 100 NE13      29.72F WCI  22
TIOGA          CLOUDY    32  32 100 E10       29.69F WCI  24
WATFORD CITY     N/A     34  32  93 E9        29.67F WCI  26
BISMARCK       CLOUDY    37  33  85 E8        29.69S WCI  31
GRAND FORKS    CLOUDY    37  30  75 E3        29.77R
FARGO          PTCLDY    37  35  92 CALM      29.78R
BUFFALO SD       N/A     48  33  56 NE8       29.53S
RAPID CITY     CLEAR     52  31  44 SE8       29.59R
$$

REGIONAL REPORTS...WYOMING/IDAHO/WASHINGTON

CITY           SKY/WX    TMP DP  RH WIND       PRES   REMARKS
GILLETTE       CLOUDY    50  32  50 SW9       29.57S
SHERIDAN       CLOUDY    39  31  72 MISG      29.54S
BUFFALO WY     CLOUDY    47  30  51 W9        29.57S
CODY           CLOUDY    44  32  62 CALM      29.55F
YELLOWSTONE LA   N/A     32  31  96 CALM      29.64F
IDAHO FALLS    LGT RAIN  38  37  97 SW5       29.59F
SALMON         CLOUDY    43  34  70 S9        29.43F
BOISE          CLOUDY    49  40  71 SE18      29.42F
SPOKANE        LGT RAIN  37  35  92 S10       29.37R WCI  30
$$

REGIONAL REPORTS...ALBERTA

CITY           SKY/WX    TMP DP  RH WIND       PRES   REMARKS
EDMONTON       CLOUDY    34  30  86 E12G17    29.53F WCI  25
CALGARY        LGT SNOW  32  30  93 SE6       29.42F WCI  26
LETHBRIDGE     CLOUDY    36  34  93 N6        29.42F WCI  31
MEDICINE HAT   CLOUDY    43  32  65 E13G20    29.45F
WATERTON GATE    N/A     32  30  93 SW2         N/A
CARDSTON         N/A     34  30  86 NE2         N/A
MILK RIVER       N/A     39  32  75 W3          N/A
$$

REGIONAL REPORTS...SASKATCHEWAN

CITY           SKY/WX    TMP DP  RH WIND       PRES   REMARKS
SWIFT CURRENT  CLOUDY    34  34 100 E16       29.57F WCI  23
REGINA         MOCLDY    34  30  86 E8        29.71F WCI  27
SASKATOON      FOG       32  30  93 NE9       29.72R VSB 1/4 WCI  24
CYPRESS HILLS    N/A     34  28  80 SE15G23     N/A  WCI  24
VAL MARIE        N/A     39  30  70 SE10        N/A
ROCKGLEN         N/A     34  30  86 E7          N/A  WCI  28
ASSINIBOIA       N/A     36  32  87 E9          N/A  WCI  29
$$




USA.gov is the U.S. government's official web portal to all federal, state and local government web resources and services.